When you browse on this site, cookies collect data to enhance your experience and personalize the content and advertising you see.
Visit our Privacy Policy to learn more. By continuing to use the site, you agree to this use of cookies and data.
  • en France
  • Liste des pays
  • À 7 jours
  • Température de l'eau
  • Carte météo
  • Widgets météo
  • user-avatar
    Se connecter

    Météo par heure à Potsdam

    Ce jour, 14 Décembre, Samedi

    Heure Température Précipitation Vent Pression Humidité
    00:00 +1°C° 0.1 mm 2 m/s 734 mmHg 94%
    01:00 +1°C° 0 mm 2 m/s 734 mmHg 96%
    02:00 +2°C° 0.3 mm 2 m/s 734 mmHg 96%
    03:00 +2°C° 0.3 mm 3 m/s 734 mmHg 95%
    04:00 +1°C° 0.3 mm 4 m/s 734 mmHg 95%
    05:00 +3°C° 0.2 mm 4 m/s 734 mmHg 92%
    06:00 +3°C° 0.2 mm 4 m/s 735 mmHg 89%
    07:00 +3°C° 0.2 mm 4 m/s 735 mmHg 87%
    08:00 +3°C° 0 mm 4 m/s 735 mmHg 85%
    09:00 +3°C° 0 mm 4 m/s 734 mmHg 83%
    10:00 +3°C° 0 mm 4 m/s 734 mmHg 82%
    11:00 +3°C° 1 mm 4 m/s 735 mmHg 86%
    12:00 +3°C° 1 mm 3 m/s 735 mmHg 91%
    13:00 +3°C° 1 mm 2 m/s 735 mmHg 96%
    14:00 +3°C° 0.2 mm 3 m/s 736 mmHg 92%
    15:00 +3°C° 0.2 mm 4 m/s 738 mmHg 88%
    16:00 +3°C° 0.2 mm 5 m/s 739 mmHg 84%
    17:00 +2°C° 0.2 mm 5 m/s 740 mmHg 81%
    18:00 +2°C° 0.2 mm 5 m/s 741 mmHg 78%
    19:00 +2°C° 0.2 mm 5 m/s 742 mmHg 75%
    20:00 +2°C° 0 mm 5 m/s 742 mmHg 75%
    21:00 +2°C° 0 mm 5 m/s 743 mmHg 76%
    22:00 +2°C° 0 mm 5 m/s 743 mmHg 76%
    23:00 +2°C° 0.1 mm 6 m/s 744 mmHg 79%

    Demain, 15 Décembre, Dimanche

    Heure Température Précipitation Vent Pression Humidité
    00:00 +2°C° 0.1 mm 6 m/s 744 mmHg 82%
    01:00 +2°C° 0.1 mm 6 m/s 745 mmHg 85%
    02:00 +2°C° 0 mm 5 m/s 745 mmHg 83%
    03:00 +1°C° 0 mm 4 m/s 745 mmHg 81%
    04:00 0°C° 0 mm 4 m/s 746 mmHg 80%
    05:00 +1°C° 0 mm 4 m/s 745 mmHg 79%
    06:00 +1°C° 0 mm 4 m/s 745 mmHg 79%
    07:00 +1°C° 0 mm 5 m/s 745 mmHg 78%
    08:00 +2°C° 0.6 mm 5 m/s 744 mmHg 82%
    09:00 +4°C° 0.6 mm 6 m/s 744 mmHg 86%
    10:00 +5°C° 0.6 mm 7 m/s 744 mmHg 90%
    11:00 +5°C° 0.2 mm 6 m/s 744 mmHg 83%
    12:00 +7°C° 0.2 mm 6 m/s 745 mmHg 76%
    13:00 +8°C° 0.2 mm 6 m/s 746 mmHg 69%
    14:00 +7°C° 0 mm 5 m/s 746 mmHg 68%
    15:00 +6°C° 0 mm 5 m/s 747 mmHg 67%
    16:00 +5°C° 0 mm 4 m/s 748 mmHg 65%
    17:00 +5°C° 0 mm 4 m/s 748 mmHg 68%
    18:00 +5°C° 0 mm 5 m/s 749 mmHg 71%
    19:00 +3°C° 0 mm 5 m/s 750 mmHg 74%
    20:00 +4°C° 0 mm 4 m/s 750 mmHg 75%
    21:00 +4°C° 0 mm 4 m/s 751 mmHg 77%
    22:00 +4°C° 0 mm 4 m/s 752 mmHg 78%
    23:00 +4°C° 0 mm 4 m/s 752 mmHg 80%

    Après-demain, 16 Décembre, Lundi

    Heure Température Précipitation Vent Pression Humidité
    00:00 +3°C° 0 mm 3 m/s 752 mmHg 82%
    01:00 +3°C° 0 mm 3 m/s 753 mmHg 83%
    02:00 +3°C° 0 mm 3 m/s 753 mmHg 85%
    03:00 +3°C° 0 mm 3 m/s 753 mmHg 87%
    04:00 +4°C° 0 mm 2 m/s 753 mmHg 89%
    05:00 +4°C° 0 mm 2 m/s 753 mmHg 89%
    06:00 +4°C° 0 mm 2 m/s 753 mmHg 89%
    07:00 +3°C° 0 mm 3 m/s 753 mmHg 89%
    08:00 +4°C° 0 mm 3 m/s 753 mmHg 89%
    09:00 +5°C° 0 mm 4 m/s 753 mmHg 89%
    10:00 +5°C° 0 mm 4 m/s 753 mmHg 88%
    11:00 +6°C° 0 mm 4 m/s 753 mmHg 88%
    12:00 +7°C° 0 mm 4 m/s 753 mmHg 88%
    13:00 +7°C° 0 mm 4 m/s 752 mmHg 87%
    14:00 +7°C° 0 mm 4 m/s 752 mmHg 87%
    15:00 +8°C° 0 mm 3 m/s 752 mmHg 87%
    16:00 +8°C° 0 mm 3 m/s 752 mmHg 87%
    17:00 +7°C° 0 mm 3 m/s 752 mmHg 87%
    18:00 +7°C° 0 mm 3 m/s 751 mmHg 87%
    19:00 +7°C° 0 mm 3 m/s 751 mmHg 87%
    20:00 +7°C° 0 mm 3 m/s 751 mmHg 86%
    21:00 +7°C° 0 mm 3 m/s 751 mmHg 84%
    22:00 +7°C° 0 mm 3 m/s 751 mmHg 83%
    23:00 +7°C° 0 mm 3 m/s 751 mmHg 84%

    17 Décembre, Mardi

    Heure Température Précipitation Vent Pression Humidité
    00:00 +5°C° 0 mm 3 m/s 751 mmHg 85%
    01:00 +5°C° 0 mm 3 m/s 750 mmHg 86%
    02:00 +5°C° 0 mm 3 m/s 750 mmHg 85%
    03:00 +5°C° 0 mm 3 m/s 750 mmHg 85%
    04:00 +5°C° 0 mm 3 m/s 750 mmHg 84%
    05:00 +5°C° 0 mm 3 m/s 750 mmHg 82%
    06:00 +5°C° 0 mm 4 m/s 750 mmHg 81%
    07:00 +6°C° 0 mm 4 m/s 750 mmHg 79%
    08:00 +6°C° 0 mm 4 m/s 750 mmHg 76%
    09:00 +7°C° 0 mm 4 m/s 751 mmHg 73%
    10:00 +8°C° 0 mm 4 m/s 751 mmHg 70%
    11:00 +8°C° 0 mm 4 m/s 751 mmHg 69%
    12:00 +10°C° 0 mm 4 m/s 751 mmHg 68%
    13:00 +11°C° 0 mm 4 m/s 751 mmHg 67%
    14:00 +10°C° 0 mm 3 m/s 751 mmHg 69%
    15:00 +10°C° 0 mm 3 m/s 751 mmHg 70%
    16:00 +10°C° 0 mm 3 m/s 751 mmHg 72%
    17:00 +10°C° 0 mm 3 m/s 751 mmHg 72%
    18:00 +10°C° 0 mm 3 m/s 752 mmHg 73%
    19:00 +9°C° 0 mm 3 m/s 752 mmHg 73%
    20:00 +9°C° 0 mm 3 m/s 752 mmHg 74%
    21:00 +9°C° 0 mm 3 m/s 752 mmHg 76%
    22:00 +8°C° 0 mm 3 m/s 752 mmHg 77%
    23:00 +8°C° 0 mm 3 m/s 752 mmHg 75%

    18 Décembre, Mercredi

    Heure Température Précipitation Vent Pression Humidité
    00:00 +8°C° 0 mm 3 m/s 752 mmHg 73%
    01:00 +7°C° 0 mm 4 m/s 752 mmHg 72%
    02:00 +8°C° 0 mm 3 m/s 752 mmHg 72%
    03:00 +8°C° 0 mm 3 m/s 752 mmHg 72%
    04:00 +8°C° 0 mm 3 m/s 752 mmHg 73%
    05:00 +8°C° 0 mm 3 m/s 752 mmHg 73%
    06:00 +8°C° 0 mm 3 m/s 752 mmHg 73%
    07:00 +9°C° 0 mm 3 m/s 752 mmHg 73%
    08:00 +8°C° 0 mm 3 m/s 753 mmHg 75%
    09:00 +8°C° 0 mm 3 m/s 754 mmHg 76%
    10:00 +8°C° 0 mm 3 m/s 754 mmHg 77%
    11:00 +9°C° 0 mm 3 m/s 755 mmHg 77%
    12:00 +10°C° 0 mm 3 m/s 755 mmHg 77%
    13:00 +10°C° 0 mm 3 m/s 755 mmHg 77%
    14:00 +9°C° 0 mm 2 m/s 756 mmHg 81%
    15:00 +9°C° 0 mm 2 m/s 756 mmHg 85%
    16:00 +8°C° 0 mm 2 m/s 756 mmHg 90%
    17:00 +7°C° 0 mm 2 m/s 757 mmHg 89%
    18:00 +7°C° 0 mm 2 m/s 757 mmHg 89%
    19:00 +7°C° 0 mm 2 m/s 757 mmHg 89%
    20:00 +7°C° 0.2 mm 2 m/s 757 mmHg 89%
    21:00 +6°C° 0.2 mm 2 m/s 758 mmHg 88%
    22:00 +6°C° 0.2 mm 2 m/s 758 mmHg 88%
    23:00 +6°C° 0.2 mm 2 m/s 758 mmHg 88%

    19 Décembre, Jeudi

    Heure Température Précipitation Vent Pression Humidité
    00:00 +6°C° 0.2 mm 2 m/s 758 mmHg 89%
    01:00 +6°C° 0.2 mm 2 m/s 757 mmHg 89%
    02:00 +6°C° 0.1 mm 2 m/s 757 mmHg 89%
    03:00 +6°C° 0.1 mm 2 m/s 757 mmHg 88%
    04:00 +5°C° 0.1 mm 2 m/s 757 mmHg 88%
    05:00 +4°C° 0 mm 3 m/s 757 mmHg 88%
    06:00 +4°C° 0 mm 3 m/s 757 mmHg 88%
    07:00 +4°C° 0 mm 3 m/s 757 mmHg 87%
    08:00 +4°C° 0 mm 3 m/s 757 mmHg 87%
    09:00 +5°C° 0 mm 4 m/s 756 mmHg 86%
    10:00 +5°C° 0 mm 4 m/s 756 mmHg 86%
    11:00 +5°C° 0 mm 4 m/s 756 mmHg 85%
    12:00 +5°C° 0 mm 4 m/s 756 mmHg 84%
    13:00 +6°C° 0 mm 4 m/s 755 mmHg 83%
    14:00 +6°C° 0 mm 4 m/s 755 mmHg 84%
    15:00 +5°C° 0 mm 4 m/s 755 mmHg 85%
    16:00 +5°C° 0 mm 4 m/s 754 mmHg 87%
    17:00 +5°C° 0 mm 4 m/s 754 mmHg 87%
    18:00 +5°C° 0 mm 4 m/s 754 mmHg 88%
    19:00 +5°C° 0 mm 4 m/s 753 mmHg 88%
    20:00 +5°C° 0 mm 4 m/s 753 mmHg 89%
    21:00 +5°C° 0 mm 4 m/s 753 mmHg 90%
    22:00 +5°C° 0 mm 4 m/s 752 mmHg 90%
    23:00 +5°C° 0 mm 4 m/s 752 mmHg 90%
    Voir plus